Location: Unspecified
(0.0000°N, 0.0000°E)
Time: 03:30:31
(UTC+00:00)

Vanguard 1 - Pass Details

Date: 18 December 2023
Orbit: 653 x 3826 km, 34.3° (Epoch: 22 February)

Event Time Altitude Azimuth Distance (km) Brightness Sun altitude
Rises 09:30:20 0° 217° (SW) 3,292 12.8 47.5°
Reaches altitude 10° 09:33:17 10° 204° (SSW) 2,169 12.1 48.1°
Maximum altitude 09:37:14 27° 145° (SE) 1,254 12.0 48.9°
Drops below altitude 10° 09:41:05 10° 86° (E) 2,107 12.4 49.7°
Sets 09:43:52 0° 74° (ENE) 3,175 13.0 50.2°
